Juneau, WI

4:13 PM CST on December 12, 2019 (GMT -0600)
Dodge County

Weather History for KUNU - October, 2019

Change the Weather History Date:

Saturday, October 12, 2019

  Actual Average Record
Temperature  
Mean Temperature 38 °F -  
Max Temperature 46 °F 59 °F 82 °F (2008)
Min Temperature 31 °F 40 °F 22 °F (1988)
Degree Days  
Heating Degree Days 26    
Moisture  
Dew Point 28 °F    
Average Humidity 69    
Maximum Humidity 95    
Minimum Humidity 45    
Precipitation  
Precipitation 0.00 in - - ()
Sea Level Pressure  
Sea Level Pressure 29.84 in    
Wind  
Wind Speed 15 mph ()    
Max Wind Speed 26 mph    
Max Gust Speed 34 mph    
Visibility 9.7 miles    
Events Rain    
Averages and records for this station are not official NWS values.
T = Trace of Precipitation, MM = Missing Value Source: Averaged Metar Reports

Daily Weather History Graph

Daily Weather History Graph

Search for Another Location

Airport or City:

Astronomy

Oct. 12, 2019 Rise Set
Actual Time 7:04 AM CDT 6:16 PM CDT
Civil Twilight 6:36 AM CDT 6:45 PM CDT
Nautical Twilight 6:03 AM CDT 7:18 PM CDT
Astronomical Twilight 5:29 AM CDT 7:51 PM CDT
Moon 6:16 PM CDT 5:37 AM CDT
Length of Visible Light 12h 09m
Length of Day
11h 12m
Waxing Gibbous, 99% of the Moon is Illuminated
Oct 12
Waxing Gibbous
Oct 13
Full
Oct 21
Last Quarter
Oct 27
New
Nov 4
First Quarter

Hourly Weather History & Observations

Time (CDT) Temp. Windchill Dew Point Humidity Pressure Visibility Wind Dir Wind Speed Gust Speed Precip Events Conditions
12:15 AM 36.7 °F 27.2 °F 24.8 °F 62% 29.92 in 10.0 mi SW 16.1 mph 23.0 mph N/A   Overcast
12:55 AM 36.9 °F 26.8 °F 24.4 °F 61% 29.93 in 10.0 mi SW 18.4 mph 26.5 mph N/A   Overcast
1:15 AM 36.7 °F 27.2 °F 24.4 °F 61% 29.92 in 10.0 mi SW 16.1 mph 29.9 mph N/A   Overcast
1:35 AM 36.5 °F 27.4 °F 24.8 °F 63% 29.92 in 10.0 mi SW 15.0 mph 21.9 mph N/A   Overcast
1:55 AM 36.5 °F 27.8 °F 25.3 °F 64% 29.92 in 10.0 mi SW 13.8 mph 25.3 mph N/A   Overcast
2:15 AM 36.5 °F 27.0 °F 25.0 °F 63% 29.91 in 10.0 mi SW 16.1 mph 19.6 mph N/A   Overcast
2:35 AM 36.5 °F 27.0 °F 25.2 °F 64% 29.91 in 10.0 mi SW 16.1 mph 23.0 mph N/A   Overcast
2:55 AM 36.5 °F 27.0 °F 24.8 °F 63% 29.91 in 10.0 mi SW 16.1 mph 20.7 mph N/A   Overcast
4:15 AM 36.0 °F 26.3 °F 24.1 °F 62% 29.90 in 10.0 mi SW 16.1 mph 23.0 mph N/A   Overcast
4:35 AM 35.8 °F 26.1 °F 23.2 °F 60% 29.90 in 10.0 mi SW 16.1 mph 24.2 mph N/A   Overcast
4:55 AM 35.1 °F 25.5 °F 23.7 °F 63% 29.90 in 10.0 mi SW 15.0 mph 23.0 mph N/A   Mostly Cloudy
5:15 AM 34.3 °F 25.9 °F 25.0 °F 69% 29.90 in 10.0 mi SW 11.5 mph 20.7 mph N/A   Scattered Clouds
5:35 AM 33.3 °F 23.7 °F 24.8 °F 71% 29.90 in 10.0 mi SW 13.8 mph 20.7 mph N/A   Clear
5:55 AM 32.7 °F 23.9 °F 24.8 °F 73% 29.90 in 10.0 mi SSW 11.5 mph - N/A   Scattered Clouds
6:55 AM 32.0 °F 23.6 °F 24.8 °F 75% 29.90 in 10.0 mi SSW 10.4 mph - N/A   Clear
7:15 AM 31.8 °F 22.3 °F 24.6 °F 75% 29.90 in 10.0 mi SSW 12.7 mph 19.6 mph N/A   Clear
7:35 AM 32.0 °F 21.2 °F 24.4 °F 74% 29.90 in 10.0 mi SSW 16.1 mph 19.6 mph N/A   Clear
7:55 AM 32.0 °F 21.6 °F 24.4 °F 74% 29.90 in 10.0 mi SSW 15.0 mph 18.4 mph N/A   Clear
8:15 AM 32.4 °F 21.7 °F 24.8 °F 74% 29.90 in 10.0 mi SSW 16.1 mph 21.9 mph N/A   Clear
8:35 AM 33.3 °F 22.5 °F 25.0 °F 72% 29.90 in 10.0 mi SSW 17.3 mph 21.9 mph N/A   Clear
8:55 AM 34.0 °F 24.2 °F 24.8 °F 69% 29.90 in 10.0 mi SSW 15.0 mph 24.2 mph N/A   Clear
9:15 AM 34.7 °F 24.7 °F 25.0 °F 68% 29.89 in 10.0 mi SW 16.1 mph 23.0 mph N/A   Clear
9:35 AM 35.8 °F 25.4 °F 24.8 °F 64% 29.88 in 10.0 mi SSW 18.4 mph 25.3 mph N/A   Clear
9:55 AM 35.8 °F 24.8 °F 23.7 °F 62% 29.88 in 10.0 mi SW 20.7 mph 27.6 mph N/A   Scattered Clouds
10:15 AM 37.2 °F 26.7 °F 24.1 °F 59% 29.89 in 10.0 mi SW 20.7 mph 27.6 mph N/A   Clear
10:35 AM 37.2 °F 26.4 °F 24.1 °F 59% 29.88 in 10.0 mi SSW 21.9 mph 27.6 mph N/A   Clear
10:55 AM 38.5 °F 28.9 °F 24.3 °F 57% 29.87 in 10.0 mi SSW 18.4 mph 28.8 mph N/A   Scattered Clouds
11:15 AM 39.2 °F 29.8 °F 25.0 °F 57% 29.88 in 10.0 mi SW 18.4 mph 25.3 mph N/A   Scattered Clouds
11:35 AM 40.3 °F 30.2 °F 24.8 °F 54% 29.87 in 10.0 mi SW 23.0 mph 29.9 mph N/A   Scattered Clouds
11:55 AM 40.3 °F 31.9 °F 24.3 °F 53% 29.86 in 10.0 mi SSW 16.1 mph 26.5 mph N/A   Scattered Clouds
12:15 PM 40.3 °F 30.7 °F 24.1 °F 52% 29.85 in 10.0 mi SW 20.7 mph 26.5 mph N/A   Scattered Clouds
12:35 PM 40.5 °F 30.9 °F 24.6 °F 53% 29.83 in 10.0 mi SSW 20.7 mph 25.3 mph N/A   Scattered Clouds
12:55 PM 40.6 °F 31.7 °F 24.4 °F 53% 29.82 in 10.0 mi SSW 18.4 mph 28.8 mph N/A   Clear
1:15 PM 43.3 °F 35.0 °F 25.7 °F 50% 29.81 in 10.0 mi SW 19.6 mph 26.5 mph N/A   Clear
1:35 PM 44.1 °F 35.7 °F 24.6 °F 46% 29.80 in 10.0 mi SSW 20.7 mph 32.2 mph N/A   Scattered Clouds
1:55 PM 43.2 °F 33.4 °F 24.6 °F 48% 29.80 in 10.0 mi SSW 26.5 mph 32.2 mph N/A   Mostly Cloudy
2:15 PM 43.7 °F 35.7 °F 25.5 °F 49% 29.79 in 10.0 mi SSW 18.4 mph 26.5 mph N/A   Scattered Clouds
2:35 PM 44.1 °F 36.5 °F 25.9 °F 49% 29.78 in 10.0 mi SSW 17.3 mph 33.4 mph N/A   Scattered Clouds
2:55 PM 45.0 °F 38.5 °F 26.8 °F 49% 29.76 in 10.0 mi SSW 13.8 mph 24.2 mph N/A   Clear
3:15 PM 45.5 °F 37.8 °F 25.9 °F 46% 29.76 in 10.0 mi SW 19.6 mph 28.8 mph N/A   Clear
3:35 PM 46.6 °F - 27.0 °F 46% 29.75 in 10.0 mi SW 20.7 mph 32.2 mph N/A   Scattered Clouds
3:55 PM 46.4 °F 38.7 °F 25.9 °F 45% 29.76 in 10.0 mi SW 20.7 mph 34.5 mph N/A   Mostly Cloudy
4:15 PM 46.0 °F 39.3 °F 26.4 °F 46% 29.74 in 10.0 mi SW 16.1 mph 26.5 mph N/A   Mostly Cloudy
4:35 PM 46.0 °F 39.9 °F 28.2 °F 50% 29.75 in 10.0 mi WSW 13.8 mph 17.3 mph N/A   Overcast
4:55 PM 45.3 °F 36.5 °F 27.7 °F 50% 29.76 in 10.0 mi WSW 25.3 mph 33.4 mph N/A   Overcast
5:15 PM 43.0 °F 35.7 °F 30.6 °F 62% 29.76 in 10.0 mi West 15.0 mph 32.2 mph N/A   Drizzle
5:35 PM 38.8 °F 31.6 °F 32.2 °F 77% 29.78 in 10.0 mi West 11.5 mph 17.3 mph N/A   Light Drizzle
5:55 PM 37.4 °F 30.8 °F 32.4 °F 82% 29.80 in 10.0 mi West 9.2 mph - N/A   Overcast
6:15 PM 36.0 °F 28.5 °F 33.3 °F 90% 29.82 in 10.0 mi WSW 10.4 mph - N/A Rain Rain
6:35 PM 35.2 °F 25.8 °F 33.8 °F 94% 29.81 in 5.0 mi WSW 15.0 mph 19.6 mph N/A Rain Rain
6:55 PM 35.6 °F 25.9 °F 33.8 °F 93% 29.81 in 7.0 mi WSW 16.1 mph 21.9 mph N/A Rain Rain
7:15 PM 35.6 °F 26.2 °F 33.6 °F 92% 29.81 in 10.0 mi WSW 15.0 mph 29.9 mph N/A Rain Light Rain
7:35 PM 35.8 °F 26.5 °F 32.9 °F 89% 29.80 in 10.0 mi WSW 15.0 mph 23.0 mph N/A   Light Drizzle
7:55 PM 36.0 °F 26.3 °F 32.0 °F 86% 29.80 in 10.0 mi West 16.1 mph 26.5 mph N/A   Overcast
8:15 PM 35.6 °F 24.8 °F 32.2 °F 87% 29.80 in 10.0 mi WSW 19.6 mph - N/A   Drizzle
8:35 PM 34.9 °F 25.7 °F 32.9 °F 92% 29.79 in 10.0 mi WSW 13.8 mph 21.9 mph N/A   Drizzle
8:55 PM 34.7 °F 26.4 °F 33.3 °F 94% 29.79 in 10.0 mi SW 11.5 mph - N/A   Light Drizzle
9:15 PM 35.1 °F 26.9 °F 33.3 °F 93% 29.79 in 10.0 mi SW 11.5 mph 26.5 mph N/A   Light Drizzle
9:35 PM 35.2 °F 28.1 °F 33.4 °F 93% 29.79 in 10.0 mi SW 9.2 mph 18.4 mph N/A Rain Light Rain
9:55 PM 35.2 °F 27.6 °F 33.4 °F 93% 29.79 in 7.0 mi SW 10.4 mph 18.4 mph N/A   Drizzle
10:15 PM 35.1 °F 27.4 °F 33.4 °F 94% 29.78 in 7.0 mi SW 10.4 mph 17.3 mph N/A   Drizzle
10:35 PM 35.1 °F 26.4 °F 33.8 °F 95% 29.78 in 7.0 mi SW 12.7 mph 18.4 mph N/A   Drizzle
10:55 PM 35.2 °F 28.1 °F 34.0 °F 95% 29.77 in 10.0 mi SSW 9.2 mph - N/A   Drizzle
11:15 PM 35.6 °F 27.5 °F 34.0 °F 94% 29.76 in 10.0 mi SSW 11.5 mph - N/A   Light Drizzle
11:35 PM 35.6 °F 26.6 °F 33.8 °F 93% 29.76 in 10.0 mi SW 13.8 mph - N/A   Drizzle
11:55 PM 35.8 °F 26.5 °F 33.8 °F 92% 29.76 in 10.0 mi SW 15.0 mph 20.7 mph N/A   Light Drizzle